Powrót do katalogu

ONEWEB-0631

AktywnyŁącznośćPO
NORAD 55171·PAYLOAD·🇬🇧 United Kingdom

Wystrzelony Jan 10, 2023 z Cape Canaveral Space Force Station

Loading…

Następne Przeloty (najbliższe 24 godziny)

TLE

ŚwieżeSource: CelesTrak SupGP

Epoka: Sep 14, 2026, 15:48 UTC

1 55171C 23004AH  26257.65884676  .00001864  00000+0  47350-2 0  2576
2 55171  87.9165 317.6627 0001493 106.9655   2.7554 13.18682228    13

Śledź ONEWEB-0631 w czasie rzeczywistym z AllMySat

Download on the App Store